M0PSX-13 Weather Reports


time (UTC)temp
C
wind
direction
speed
KPH
gust
KPH
rain 1hr
cm
rain 24hr
cm
rain mn
cm
humidity
%
barometer
mb
20260510113020 12 337 3.2 14.5 0.00 0.00 0.00 73 1016.2
20260510112004 12 337 3.2 11.3 0.00 0.00 0.00 72 1016.2
20260510111017 12 337 3.2 9.7 0.00 0.00 0.00 71 1016.2
20260510105008 11 337 3.2 17.7 0.00 0.00 0.00 73 1016.3
20260510103016 12 338 6.4 14.5 0.00 0.00 0.00 73 1016.4
20260510102015 12 338 3.2 14.5 0.00 0.00 0.00 74 1016.3
20260510101015 12 340 3.2 11.3 0.00 0.00 0.00 73 1016.3
20260510100005 12 338 3.2 12.9 0.00 0.00 0.00 73 1016.3
20260510095005 12 338 3.2 14.5 0.00 0.00 0.00 73 1016.3
20260510093005 12 339 4.8 12.9 0.00 0.00 0.00 71 1016.4
20260510091007 12 337 4.8 11.3 0.00 0.00 0.00 73 1016.6
20260510090008 12 339 6.4 9.7 0.00 0.00 0.00 74 1016.4
20260510084020 12 337 6.4 17.7 0.00 0.00 0.00 74 1016.5
20260510083004 11 338 4.8 12.9 0.00 0.00 0.00 76 1016.7
20260510081016 11 337 3.2 12.9 0.00 0.00 0.00 79 1016.7
20260510080016 11 338 8.0 12.9 0.00 0.00 0.00 79 1016.7
20260510075005 11 342 3.2 12.9 0.00 0.00 0.00 80 1016.8
20260510074004 11 340 3.2 9.7 0.00 0.00 0.00 80 1016.9
20260510073005 11 337 4.8 9.7 0.00 0.00 0.00 81 1016.9
20260510072005 10 338 3.2 14.5 0.00 0.00 0.00 81 1016.7
20260510071005 10 337 3.2 6.4 0.00 0.00 0.00 82 1016.8
20260510070007 10 337 4.8 9.7 0.00 0.00 0.00 83 1017.1
20260510065005 10 340 4.8 9.7 0.00 0.00 0.00 83 1016.7
20260510064005 10 338 3.2 12.9 0.00 0.00 0.00 84 1016.8
20260510063008 10 339 4.8 9.7 0.00 0.00 0.00 85 1016.7
20260510061017 10 350 3.2 6.4 0.00 0.00 0.00 88 1016.9
20260510060006 10 343 3.2 6.4 0.00 0.00 0.00 88 1016.7
20260510054005 9 338 4.8 9.7 0.00 0.00 0.00 89 1016.7
20260510053005 9 337 4.8 9.7 0.00 0.00 0.00 90 1016.4
20260510052020 8 338 3.2 6.4 0.00 0.00 0.00 91 1016.8
20260510051031 8 337 3.2 6.4 0.00 0.00 0.00 91 1016.6
20260510050005 8 343 3.2 6.4 0.00 0.00 0.00 91 1016.5
20260510045005 8 341 3.2 6.4 0.00 0.00 0.00 91 1016.6
20260510044007 8 349 3.2 6.4 0.00 0.00 0.00 92 1016.8
20260510042005 8 340 0.0 6.4 0.00 0.00 0.00 92 1016.8
20260510040005 8 352 0.0 6.4 0.00 0.00 0.00 92 1016.6
20260510035017 8 350 1.6 6.4 0.00 0.00 0.00 92 1016.8
20260510034008 8 351 0.0 3.2 0.00 0.00 0.00 92 1016.9
20260510033008 8 349 3.2 6.4 0.00 0.00 0.00 92 1016.8
20260510032016 8 347 1.6 6.4 0.00 0.00 0.00 92 1016.9
20260510031006 8 349 1.6 3.2 0.00 0.00 0.00 92 1016.9
20260510030004 8 351 1.6 6.4 0.00 0.00 0.00 91 1016.9
20260510023004 8 1 0.0 3.2 0.00 0.00 0.00 91 1016.9
20260510022005 8 1 0.0 3.2 0.00 0.00 0.00 91 1017.0
20260510021004 8 1 0.0 3.2 0.00 0.00 0.00 90 1017.1
20260510020005 8 357 0.0 3.2 0.00 0.00 0.00 90 1017.0
20260510015005 8 1 1.6 3.2 0.00 0.00 0.00 90 1017.0
20260510014004 8 353 1.6 6.4 0.00 0.00 0.00 90 1016.9
20260510013004 8 350 3.2 6.4 0.00 0.00 0.00 89 1017.0
20260510012004 8 348 3.2 6.4 0.00 0.00 0.00 89 1016.7
20260510011005 8 358 1.6 6.4 0.00 0.00 0.00 88 1017.3
20260510010005 8 355 1.6 6.4 0.00 0.00 0.00 88 1017.0
20260510005005 9 355 1.6 3.2 0.00 0.00 0.00 87 1016.9
20260510004005 9 358 0.0 3.2 0.00 0.00 0.00 86 1017.1
20260510003005 9 358 0.0 3.2 0.00 0.00 0.00 86 1017.0
20260510002005 9 358 1.6 3.2 0.00 0.00 0.00 86 1017.0
20260510001005 10 1 1.6 3.2 0.00 0.00 0.00 85 1017.2
20260509235005 10 353 3.2 3.2 0.00 0.00 0.00 84 1017.1
20260509234004 10 352 1.6 3.2 0.00 0.00 0.00 83 1017.0
20260509233005 10 354 1.6 6.4 0.00 0.00 0.00 82 1017.4
20260509231005 10 340 1.6 3.2 0.00 0.00 0.00 81 1017.4
20260509230010 10 338 1.6 3.2 0.00 0.00 0.00 81 1017.1
20260509225005 10 338 1.6 3.2 0.00 0.00 0.00 81 1017.0
20260509224005 10 338 1.6 3.2 0.00 0.00 0.00 80 1017.3
20260509223005 11 338 1.6 3.2 0.00 0.00 0.00 79 1017.3
20260509222007 11 338 1.6 3.2 0.00 0.00 0.00 79 1017.5
20260509221005 11 338 1.6 6.4 0.00 0.00 0.00 79 1017.4
20260509220005 11 338 1.6 6.4 0.00 0.00 0.00 78 1017.1
20260509214005 11 338 3.2 6.4 0.00 0.00 0.00 76 1017.2
20260509213005 11 337 1.6 3.2 0.00 0.00 0.00 74 1017.0
20260509211005 11 338 1.6 3.2 0.00 0.00 0.00 73 1016.8
20260509210005 12 337 3.2 6.4 0.00 0.00 0.00 73 1016.8
20260509205005 12 337 3.2 3.2 0.00 0.00 0.00 75 1016.9
20260509204005 12 337 3.2 6.4 0.00 0.00 0.00 75 1016.8
20260509203005 12 337 3.2 3.2 0.00 0.00 0.00 73 1016.8
20260509200005 12 337 3.2 6.4 0.00 0.00 0.00 70 1016.8
20260509195005 13 337 1.6 9.7 0.00 0.00 0.00 69 1016.6
20260509193004 13 338 3.2 11.3 0.00 0.00 0.00 66 1016.4
20260509192005 13 337 3.2 9.7 0.00 0.00 0.00 66 1016.4
20260509191004 13 338 3.2 6.4 0.00 0.00 0.00 65 1016.3
20260509190005 13 337 3.2 9.7 0.00 0.00 0.00 65 1016.3
20260509185005 14 337 1.6 11.3 0.00 0.00 0.00 63 1016.4
20260509184005 14 337 3.2 9.7 0.00 0.00 0.00 60 1016.3
20260509183004 14 337 3.2 11.3 0.00 0.00 0.00 58 1016.3
20260509182004 15 337 3.2 12.9 0.00 0.00 0.00 58 1016.1
20260509181005 15 338 4.8 11.3 0.00 0.00 0.00 56 1016.2
20260509180005 15 337 3.2 11.3 0.00 0.00 0.00 53 1016.0
20260509175004 15 338 3.2 11.3 0.00 0.00 0.00 55 1015.9
20260509174005 15 338 6.4 14.5 0.00 0.00 0.00 51 1016.1
20260509173004 15 338 6.4 12.9 0.00 0.00 0.00 50 1016.1
20260509172004 15 337 6.4 11.3 0.00 0.00 0.00 49 1016.2
20260509171005 15 337 3.2 11.3 0.00 0.00 0.00 52 1016.2
20260509170004 15 337 3.2 12.9 0.00 0.00 0.00 52 1016.0
20260509165004 15 337 6.4 12.9 0.00 0.00 0.00 51 1016.2
20260509164004 16 337 4.8 11.3 0.00 0.00 0.00 48 1016.4
20260509163005 16 339 4.8 12.9 0.00 0.00 0.00 51 1016.4
20260509162005 16 338 3.2 11.3 0.00 0.00 0.00 51 1016.4
20260509161005 16 337 4.8 12.9 0.00 0.00 0.00 50 1016.8
20260509160005 16 337 6.4 12.9 0.00 0.00 0.00 51 1016.8
20260509155005 16 337 4.8 11.3 0.00 0.00 0.00 51 1016.5
20260509154005 16 337 6.4 11.3 0.00 0.00 0.00 52 1016.7
20260509153004 16 337 6.4 11.3 0.00 0.00 0.00 51 1016.6
20260509152004 16 339 4.8 12.9 0.00 0.00 0.00 51 1016.6
20260509151005 17 337 6.4 12.9 0.00 0.00 0.00 50 1016.6
20260509150005 17 338 3.2 17.7 0.00 0.00 0.00 51 1016.3
20260509145005 17 338 4.8 17.7 0.00 0.00 0.00 51 1016.3
20260509144005 16 338 4.8 12.9 0.00 0.00 0.00 51 1016.1
20260509143005 17 337 6.4 11.3 0.00 0.00 0.00 51 1016.3
20260509142005 17 338 4.8 9.7 0.00 0.00 0.00 52 1016.3
20260509135004 17 340 4.8 9.7 0.00 0.00 0.00 53 1016.4
20260509134005 17 337 4.8 11.3 0.00 0.00 0.00 54 1015.9
20260509132004 17 324 3.2 11.3 0.00 0.00 0.00 55 1016.6
20260509130004 17 335 4.8 9.7 0.00 0.00 0.00 56 1016.6
20260509125007 17 335 3.2 11.3 0.00 0.00 0.00 56 1016.6
20260509124004 17 337 3.2 12.9 0.00 0.00 0.00 56 1016.7
20260509123004 17 337 3.2 3.2 0.00 0.00 0.00 55 1017.1
20260509122005 17 337 3.2 12.9 0.00 0.00 0.00 55 1017.0
20260509121005 17 314 4.8 9.7 0.00 0.00 0.00 56 1017.0
20260509120005 17 314 6.4 9.7 0.00 0.00 0.00 56 1017.0
20260509115004 17 314 3.2 11.3 0.00 0.00 0.00 55 1016.9
20260509114004 17 314 3.2 9.7 0.00 0.00 0.00 54 1017.0